Dewpoint
42 41 42 41 42 42 42 42 42 41 40 41 40 42 41 38 42 44 44 43 44 45 44 43 43 45 41 33 32 47 47 40 43 52 50 45 39 30 23 22 26 24 19 23 23 29 28
42 42 41 40 39 40 40 40 40 39 39 40 39 40 38 39 39 41 42 43 44 44 44 44 43 44 38 28 45 44 44 39 42 51 50 45 38 30 25 22 20 21 23 23 22 26 28
41 42 40 42 39 36 40 40 38 39 39 41 40 37 39 41 41 41 43 44 44 44 45 45 43 42 36 29 41 44 43 38 38 49 49 45 39 28 25 25 26 25 19 21 21 25 27
42 41 41 39 39 41 39 40 37 39 39 39 39 42 43 42 42 42 43 43 43 46 45 45 44 40 30 34 42 42 42 39 40 43 50 44 38 31 25 27 23 20 16 10 18 24 29
41 41 41 40 40 40 38 38 39 39 40 40 42 44 44 44 44 43 41 42 39 44 47 46 42 37 26 38 38 44 42 42 41 48 50 46 39 30 25 21 17 16 6 8 13 23 27
40 41 40 39 40 39 38 38 36 39 39 40 43 44 44 43 44 40 39 40 38 35 39 43 42 36 34 31 31 33 44 45 43 49 46 43 38 30 25 19 11 9 7 7 7 20 26
41 41 40 40 38 37 38 38 37 38 39 40 43 44 42 43 43 40 36 33 30 27 31 29 29 28 30 33 32 34 44 44 47 46 38 40 34 27 24 18 10 10 7 7 12 23 21
39 40 40 37 39 38 37 37 37 38 38 40 43 43 42 43 43 42 37 31 32 33 28 28 30 32 34 36 29 33 43 38 43 39 39 37 32 29 25 21 16 13 7 6 20 23 17
40 38 39 40 39 38 36 37 37 38 39 39 42 43 38 43 41 41 38 38 39 38 27 25 30 32 32 36 31 32 41 38 39 38 37 33 31 33 27 22 16 12 6 13 8 22 20
39 38 38 39 38 37 36 36 37 38 39 40 42 43 38 42 37 39 37 41 41 41 21 16 24 31 30 33 31 36 40 38 39 37 35 34 34 31 27 22 16 13 14 16 21 13 7
38 40 40 39 38 37 37 37 37 38 39 40 42 43 39 43 39 35 39 42 43 34 6 18 26 33 29 32 31 36 39 39 33 37 37 34 34 31 27 24 20 16 21 22 21 8 14
37 39 38 39 37 37 37 37 38 38 39 39 42 44 37 31 32 36 37 42 35 16 9 19 25 26 27 30 29 33 36 39 39 37 36 34 35 32 28 25 21 25 22 23 24 20 12
40 39 39 38 37 37 37 37 38 39 39 39 42 43 33 31 27 32 39 31 18 12 17 20 22 25 26 29 30 30 33 31 31 31 31 32 32 30 27 24 26 23 15 17 15 17 7
40 40 37 37 37 37 37 38 38 39 38 39 41 40 34 29 31 35 30 22 12 16 19 21 23 23 24 25 27 30 31 29 33 31 31 29 26 29 27 24 22 21 15 15 9 8 9
40 38 38 38 37 37 37 38 38 38 37 39 38 34 25 28 32 33 27 17 17 20 21 22 20 19 19 22 24 29 30 30 31 33 30 30 29 29 26 25 23 21 17 18 19 20 10
41 39 38 38 37 37 38 38 37 37 37 39 32 28 25 30 32 30 24 19 20 21 22 23 17 19 18 21 22 25 29 30 29 31 33 35 28 28 27 25 24 21 19 15 21 12 6
40 39 38 38 37 37 37 37 37 36 36 36 27 13 24 30 29 25 20 19 20 21 21 23 19 19 20 20 22 25 25 28 30 29 33 35 30 28 26 24 22 21 18 17 16 21 12
41 40 38 38 37 38 38 37 36 35 36 32 26 14 25 29 20 22 19 19 21 20 21 20 21 20 19 20 21 23 23 28 26 30 30 36 33 26 28 28 26 21 19 17 14 15 20
40 39 38 38 37 37 38 38 36 35 35 30 24 22 25 27 18 20 20 17 20 19 20 20 21 20 19 20 19 20 22 25 23 31 28 33 32 27 28 29 27 23 21 19 16 18 14
41 41 40 38 37 37 37 37 36 35 34 29 25 13 23 24 23 20 18 16 16 19 20 20 21 19 18 18 18 18 18 21 22 31 34 35 33 26 22 24 25 24 22 21 18 16 14
41 41 41 39 37 36 37 37 36 35 33 29 27 22 23 18 20 19 18 19 17 17 19 20 18 18 19 18 18 17 19 20 23 26 30 30 30 30 29 28 28 25 24 23 20 18 16
40 41 41 40 39 36 36 36 36 34 32 29 25 24 22 21 18 18 19 18 19 18 20 18 17 17 19 19 20 18 21 20 22 23 25 28 30 31 29 27 28 27 26 25 24 22 21
39 39 40 40 39 37 36 36 35 34 32 29 29 29 24 20 19 18 19 19 19 19 17 19 17 16 17 19 19 19 21 23 24 23 22 24 23 29 27 28 27 26 27 27 26 25 24
39 39 39 40 39 38 35 36 35 34 33 32 31 29 22 16 20 19 20 21 20 20 19 17 10 13 17 16 24 26 26 25 25 25 25 22 23 26 28 28 22 24 20 24 21 17 17
40 40 39 39 39 39 36 35 36 35 35 32 33 30 24 19 20 20 21 20 20 20 20 15 5 7 15 23 23 19 22 23 25 26 24 25 23 21 24 27 29 22 17 16 18 16 14
40 40 39 39 39 39 38 35 36 37 35 33 34 35 29 20 18 23 21 22 19 19 19 13 10 14 21 19 19 17 16 19 18 23 25 25 26 22 21 22 22 15 17 18 17 20 13
40 40 40 39 39 39 39 35 36 36 36 33 33 34 29 22 24 24 21 23 25 20 17 14 13 8 17 18 16 15 15 20 16 15 15 15 15 19 20 20 16 13 16 21 18 14 13
39 40 39 39 39 39 38 36 35 36 37 32 32 32 26 23 23 27 28 26 25 17 17 17 -0 -1 18 16 15 15 16 16 17 14 14 12 12 14 15 19 18 15 13 16 12 13 11
39 39 39 39 39 39 39 37 33 36 38 33 29 30 32 27 24 28 29 33 24 17 17 14 5 -0 20 17 17 18 16 16 16 13 11 12 9 10 12 14 12 12 7 14 7 6 7
Wind_Speed
27 28 28 28 29 27 28 27 28 29 30 30 26 27 25 25 23 20 19 17 15 12 10 9 8 5 3 7 7 10 22 25 10 20 19 19 24 22 21 17 13 8 12 8 6 13 11
25 26 28 27 28 27 26 27 27 27 28 29 31 28 27 25 23 21 21 20 17 14 12 9 7 3 3 9 6 16 19 23 10 24 21 19 17 14 15 18 19 13 8 7 8 10 10
27 27 27 28 29 28 26 25 25 27 28 27 29 28 26 25 24 22 22 20 19 16 12 8 5 3 6 9 3 6 11 16 17 22 25 18 8 12 11 11 7 10 10 7 10 9 8
28 29 27 29 29 27 27 27 25 27 28 29 28 29 25 23 22 23 22 22 13 10 6 9 6 2 6 2 4 3 9 20 8 9 21 15 5 11 2 11 9 10 8 21 14 10 6
27 28 30 28 28 29 26 27 26 26 30 30 30 26 25 23 22 22 23 14 10 8 5 5 5 3 5 8 5 2 6 10 11 9 12 16 10 12 6 18 13 16 22 23 13 9 8
30 29 30 30 29 28 27 26 27 28 29 29 27 27 26 23 17 21 20 4 7 7 6 4 5 4 2 9 11 7 5 10 7 21 12 12 10 18 11 24 32 33 23 25 21 13 10
27 29 31 29 31 30 27 27 27 27 28 28 26 27 28 20 13 19 18 3 6 3 7 3 4 2 7 13 6 6 4 15 11 27 20 25 19 35 33 24 14 19 20 24 11 9 13
27 29 30 31 28 28 27 27 28 28 28 27 27 26 26 19 9 15 17 8 6 2 4 2 4 3 4 5 2 2 2 2 7 35 22 15 33 25 25 10 12 19 23 21 5 5 12
31 31 31 32 31 30 29 28 27 28 28 25 25 25 26 20 6 5 11 9 4 3 2 4 3 3 5 5 3 2 7 6 6 29 31 33 26 21 23 17 16 19 27 17 15 8 3
29 32 32 31 30 30 29 28 28 27 27 26 24 21 25 23 1 6 3 13 4 3 0 12 8 3 9 6 1 5 3 1 6 20 30 21 14 23 21 23 17 11 9 15 19 21 16
31 31 31 32 31 31 30 29 28 29 28 27 24 18 20 11 7 5 11 15 6 2 4 23 8 4 20 5 8 2 2 5 6 3 8 9 30 29 25 30 13 6 14 14 12 18 8
30 31 31 33 34 32 31 29 29 29 29 28 22 15 14 8 6 5 14 9 3 1 6 11 10 17 19 4 4 3 3 3 0 3 12 11 25 22 11 19 13 20 14 9 6 4 11
32 33 33 34 34 33 32 31 30 30 30 28 19 11 11 5 14 17 8 2 4 9 10 13 10 17 22 9 4 2 4 7 4 8 9 15 27 8 21 22 11 13 25 9 6 10 11
31 33 34 34 34 33 33 32 32 32 31 26 17 4 7 9 14 7 2 3 15 8 5 10 11 18 7 19 7 5 3 3 1 4 2 8 13 23 24 31 21 30 26 15 15 17 12
32 33 34 35 34 33 33 33 33 33 32 22 7 2 10 24 15 3 5 16 5 8 11 12 18 8 10 16 11 8 3 5 4 8 4 7 5 17 28 23 21 20 26 7 7 2 10
31 34 34 35 34 33 33 34 35 35 33 17 2 3 15 28 14 5 12 8 3 8 12 8 12 9 14 16 13 13 8 9 9 3 7 3 10 12 16 15 12 24 18 11 3 12 9
32 34 34 34 34 34 34 35 37 36 33 11 4 3 19 26 7 14 10 5 4 8 11 7 10 8 9 8 11 9 12 4 14 12 10 4 3 10 16 17 27 13 21 11 9 2 10
31 33 34 35 35 34 35 36 37 37 30 11 5 7 17 16 11 5 7 4 8 10 12 6 7 10 10 7 7 8 7 8 15 11 4 1 3 16 31 5 10 21 26 22 17 13 2
30 31 34 35 35 35 35 36 38 36 22 3 4 4 9 11 9 7 5 8 5 13 13 10 10 12 16 6 6 9 8 6 11 8 9 3 9 13 8 6 3 21 22 30 23 5 18
29 31 33 34 34 34 35 37 38 37 23 5 4 5 8 10 8 5 6 11 12 7 4 9 8 9 16 8 7 5 8 3 13 11 12 6 3 10 19 24 13 26 29 24 29 24 21
29 30 31 33 34 34 33 35 37 37 23 4 8 4 1 8 10 8 3 8 15 12 5 11 6 20 13 5 11 7 9 13 7 16 11 5 3 1 3 2 16 19 26 25 25 28 26
27 28 29 31 32 32 31 32 33 36 18 9 5 3 3 3 3 6 12 11 11 10 5 9 11 20 12 4 7 10 14 7 4 10 11 15 2 2 6 2 9 20 18 21 23 22 24
25 27 28 29 30 31 29 28 28 30 15 6 4 2 0 5 3 3 6 9 9 13 5 7 15 17 8 10 15 22 20 18 18 12 10 10 9 1 8 3 9 6 6 18 16 9 5
23 25 27 28 29 30 27 24 24 23 14 4 3 1 2 3 4 4 6 7 11 11 6 11 13 8 6 23 22 5 5 8 7 7 8 7 8 4 5 7 9 5 15 18 22 16 16
21 22 25 26 27 28 26 22 20 16 11 7 2 3 3 3 3 2 11 7 9 11 4 5 14 10 20 11 5 4 2 1 4 7 2 7 3 5 2 11 8 6 15 10 6 7 17
19 20 22 24 26 27 26 22 17 15 5 4 6 2 4 2 3 1 4 5 7 14 9 4 18 10 12 4 5 8 7 5 7 3 6 1 3 2 5 2 5 4 18 10 4 6 20
16 18 20 21 23 25 26 22 16 14 5 3 3 4 2 2 1 2 3 4 3 4 6 7 15 12 12 9 7 8 6 6 5 6 8 7 5 4 5 3 4 10 19 3 7 2 20
15 17 18 20 22 23 25 23 16 12 4 2 1 4 1 2 2 4 2 2 2 2 5 10 6 5 10 9 5 4 4 6 2 3 5 5 5 4 2 3 2 19 4 4 4 10 17
16 17 18 19 20 22 24 24 17 11 6 2 1 2 2 1 0 1 3 1 1 3 2 2 2 2 3 3 2 1 2 3 5 2 3 2 2 3 3 3 8 8 5 6 8 12 16
Wind_Direction
20 16 11 6 359 357 358 360 2 357 355 353 353 346 342 340 341 340 335 333 327 318 307 321 328 357 229 219 225 345 337 337 310 193 182 177 182 186 189 183 166 194 198 211 176 162 157
17 15 12 10 5 3 357 356 358 355 352 353 350 352 344 341 336 334 333 326 320 311 299 297 306 314 278 288 77 16 333 322 346 186 182 176 189 186 185 177 182 185 193 189 168 159 149
17 14 14 11 8 3 2 358 354 352 350 350 349 348 341 336 333 330 328 325 318 304 290 271 256 272 266 269 113 86 300 296 301 205 176 179 184 189 148 157 175 148 171 179 189 181 146
13 8 11 10 9 8 0 357 359 355 350 352 348 344 340 335 330 333 328 327 331 347 284 240 209 226 269 289 74 59 338 299 282 234 183 161 158 192 169 129 144 158 205 191 181 186 158
12 11 8 10 8 5 3 356 358 354 352 350 348 342 340 337 337 335 330 332 6 14 79 141 156 189 294 323 55 322 211 281 315 174 168 154 170 184 147 162 154 186 195 195 184 195 163
10 12 7 7 9 7 1 356 358 357 353 352 348 349 349 347 351 347 345 340 5 27 35 122 126 212 326 312 313 339 293 300 265 172 124 154 170 185 184 184 191 186 195 194 187 184 188
9 10 7 9 6 3 3 357 359 355 355 352 351 350 355 355 6 359 1 357 13 33 31 11 319 323 313 323 311 285 3 307 223 171 164 175 174 193 192 198 208 182 186 186 165 177 185
9 11 8 6 6 1 3 359 357 356 353 353 350 350 352 353 3 15 26 60 48 310 317 308 286 287 282 338 341 263 147 264 243 163 152 165 201 192 186 168 159 175 183 184 129 153 205
11 10 10 7 1 5 358 358 356 355 353 351 349 350 353 347 336 27 35 18 350 335 283 353 344 342 337 339 359 308 140 310 271 164 172 180 187 169 173 176 161 182 188 174 174 149 74
11 10 8 4 0 0 359 357 354 354 352 350 342 345 355 342 298 339 18 338 305 307 180 13 354 54 336 299 242 230 168 213 270 166 181 185 164 167 171 181 178 177 201 161 149 164 188
11 11 8 2 5 359 358 356 353 351 349 346 342 345 356 18 324 353 331 319 283 258 47 335 339 329 335 335 325 105 144 149 320 161 157 174 167 168 173 183 191 158 154 138 161 183 183
11 11 7 4 3 0 359 356 353 349 347 344 341 341 353 8 337 354 331 310 248 360 8 340 322 330 351 337 344 22 127 200 345 205 165 157 170 169 164 161 170 137 126 94 89 151 222
10 9 4 5 4 1 359 356 353 349 346 344 343 343 14 3 333 318 320 209 66 54 331 330 325 332 330 340 324 26 358 170 199 144 137 137 162 151 160 146 137 162 151 135 171 205 219
10 6 8 7 4 3 0 356 353 348 346 342 341 12 18 9 335 321 176 48 62 338 325 318 316 322 3 357 6 11 39 136 28 348 121 134 163 163 176 168 179 184 182 180 190 199 188
7 9 9 7 5 3 0 358 354 350 348 342 340 27 13 345 342 324 68 54 35 355 333 315 330 354 15 4 347 342 40 36 27 171 256 148 126 182 178 173 160 187 212 210 106 19 190
9 10 9 8 6 4 2 359 356 354 351 347 27 28 15 345 335 45 60 87 43 356 337 329 7 357 358 344 1 342 37 24 353 29 301 158 122 188 172 172 199 198 172 189 188 176 201
11 11 10 9 6 6 4 1 359 357 353 352 31 50 356 347 343 49 67 52 341 350 356 346 354 335 355 348 347 17 6 63 12 348 336 351 156 172 156 201 186 165 196 209 209 231 226
11 11 11 10 7 7 6 3 3 1 356 32 35 55 344 349 52 33 47 10 344 345 356 358 350 349 349 333 344 17 12 360 12 329 327 351 211 164 184 85 232 204 203 198 199 199 192
14 12 12 11 9 6 7 5 4 7 13 14 63 6 348 22 59 29 9 19 39 11 5 354 1 353 345 324 356 6 343 325 347 359 343 359 189 131 131 269 234 206 209 207 218 212 211
12 12 11 11 11 9 7 8 5 4 12 71 70 41 10 54 56 38 12 14 5 9 49 360 356 3 352 348 346 312 329 303 331 2 348 283 259 204 188 195 183 201 208 207 211 217 220
11 12 13 11 12 10 7 9 7 4 8 71 31 63 3 8 18 31 46 358 5 7 4 8 352 1 353 321 338 340 349 335 5 6 355 30 228 47 30 167 195 206 204 202 214 225 228
12 10 11 12 12 12 10 11 14 5 8 61 83 81 59 57 360 24 24 5 357 342 325 348 357 337 328 286 306 301 329 337 0 335 355 351 342 202 205 31 197 204 203 210 218 217 230
11 10 11 11 11 14 13 12 20 16 21 64 28 64 115 7 27 56 13 341 337 347 285 293 330 331 318 318 308 288 279 271 279 301 341 356 356 173 217 88 124 222 258 229 209 55 327
12 9 10 9 10 14 13 12 19 30 39 66 33 27 32 51 43 37 356 339 327 329 294 312 340 328 289 318 306 272 240 258 269 271 245 309 336 300 175 156 203 102 28 36 105 56 20
10 11 8 8 8 10 13 11 14 32 45 57 11 32 53 79 340 26 1 355 328 329 308 274 352 297 307 311 354 4 50 65 67 44 191 225 326 335 302 199 120 33 21 358 15 58 19
6 8 10 7 5 6 10 10 8 17 53 67 36 10 67 104 28 332 353 342 353 338 330 275 338 328 344 350 33 29 34 341 10 44 55 197 229 331 337 304 192 355 331 319 254 202 5
359 2 6 8 4 2 5 7 4 2 55 82 45 8 111 105 193 283 33 345 330 329 296 304 342 345 1 21 55 35 16 320 15 17 343 350 357 9 334 307 108 359 326 343 180 325 338
349 351 359 2 2 1 360 4 360 358 51 74 73 9 316 162 235 219 293 341 339 56 357 317 336 5 1 44 43 30 13 16 353 18 353 360 340 7 299 278 228 7 2 24 342 322 327
339 340 346 355 358 358 358 360 355 357 23 97 38 23 339 197 78 320 346 284 176 139 264 335 315 299 360 2 31 185 62 349 350 338 26 270 43 295 306 8 355 345 290 86 6 329 322